This demonstration page uses our WeatherBlox Daily Observations layout. Learn more.

Left ArrowRight Arrow

47.50024, -111.30081

Hourly Observations for May 20, 2015

Temp ( °F °C ) Dew Point ( °F °C ) Humidity (%) Winds ( mph kmh ) Pressure ( in mb ) Visibility ( mi km ) Precip ( " mm )
12:53 am 00:53 Mostly Cloudy 45 7.2 33 0.6 63 63 E 10 17 30.19 1023 10 16 0.00 0.00
1:53 am 01:53 Clear 44 6.7 31 -0.6 60 60 E 10 17 30.20 1023 10 16 0.00 0.00
2:53 am 02:53 Clear 43 6.1 29 -1.7 58 58 E 13 20 30.20 1023 10 16 0.00 0.00
3:53 am 03:53 Clear 42 5.6 28 -2.2 58 58 E 13 20 30.19 1023 10 16 0.00 0.00
4:53 am 04:53 Clear 39 3.9 28 -2.2 65 65 E 10 17 30.20 1023 10 16 0.00 0.00
5:53 am 05:53 Sunny 38 3.3 29 -1.7 70 70 E 9 15 30.20 1023 10 16 0.00 0.00
6:53 am 06:53 Sunny 42 5.6 31 -0.6 65 65 E 9 15 30.20 1023 10 16 0.00 0.00
7:53 am 07:53 Sunny 46 7.8 31 -0.6 56 56 ENE 5 7 30.20 1023 10 16 0.00 0.00
8:53 am 08:53 Sunny 49 9.4 33 0.6 55 55 E 8 13 30.20 1023 10 16 0.00 0.00
9:53 am 09:53 Sunny 53 11.7 34 1.1 48 48 VRB 6 9 30.20 1023 10 16 0.00 0.00
10:53 am 10:53 Sunny 56 13.3 33 0.6 42 42 ENE 10 17 30.18 1022 10 16 0.00 0.00
11:53 am 11:53 Sunny 60 15.6 27 -2.8 28 28 ENE 8 13 30.17 1022 10 16 0.00 0.00
12:53 pm 12:53 Sunny 61 16.1 25 -3.9 25 25 ESE 10 17 30.15 1021 10 16 0.00 0.00
1:53 pm 13:53 Sunny 62 16.7 25 -3.9 24 24 E 7 11 30.13 1020 10 16 0.00 0.00
2:53 pm 14:53 Sunny 64 17.8 25 -3.9 23 23 SE 6 9 30.11 1020 10 16 0.00 0.00
3:53 pm 15:53 Sunny 65 18.3 22 -5.6 19 19 VRB 6 9 30.09 1019 10 16 0.00 0.00
4:53 pm 16:53 Sunny 66 18.9 23 -5 19 19 ENE 10 17 30.08 1019 10 16 0.00 0.00
5:53 pm 17:53 Sunny 66 18.9 20 -6.7 17 17 E 9 15 30.07 1018 10 16 0.00 0.00
6:53 pm 18:53 Sunny 64 17.8 21 -6.1 19 19 E 15 24 30.04 1017 10 16 0.00 0.00
7:53 pm 19:53 Sunny 61 16.1 21 -6.1 21 21 E 15 24 30.04 1017 10 16 0.00 0.00
8:53 pm 20:53 Sunny 57 13.9 24 -4.4 28 28 E 15 24 30.04 1017 10 16 0.00 0.00
9:53 pm 21:53 Clear 50 10 27 -2.8 41 41 E 7 11 30.06 1018 10 16 0.00 0.00
10:53 pm 22:53 Clear 48 8.9 27 -2.8 44 44 E 7 11 30.07 1018 10 16 0.00 0.00
11:53 pm 23:53 Clear 46 7.8 29 -1.7 51 51 Calm 30.07 1018 10 16 0.00 0.00

Powered by AerisWeather